Location: Esterri de Aneo
(42.6284°N, 1.1223°E)
Time: 23:27:27
(UTC+00:00)

USA 238 DEB - Pass Details

Date: 11 December 2025
Orbit: 883 x 1328 km, 63.4° (Epoch: 10 January)

Event Time Altitude Azimuth Distance (km) Brightness Sun altitude
Rises 18:29:37 0° 226° (SW) 3,510 7.3 -22.6°
Reaches altitude 10° 18:32:04 10° 230° (SW) 2,603 6.6 -23.1°
Maximum altitude 18:38:03 61° 311° (NW) 1,091 3.8 -24.1°
Enters shadow 18:41:22 29° 21° (NNE) 1,743 4.5 -24.7°
